FENGYUN 1C DEB, 31466

Orbit data source: Space-Track

FENGYUN 1C DEB, 31466 is space debris in SSO originally from a launch on Mon, 10 May 1999 UTC launched from the Taiyaun Space Center, China (TSC). Fengyun 1C debris stems from the Chinese weather satellite Fengyun-1C, which was intentionally destroyed by a Chinese anti-satellite missile in 2007. This event dramatically increased the amount of space debris, with thousands of trackable fragments posing hazards to satellites and human spaceflight. The Fengyun 1C debris cloud has become a focal point in discussions about space sustainability and the need for international regulations to prevent the creation of new debris.

Loading next visibility...
Identifier
31466, 1999-025BVE
Orbit
SSO
Country
Flag of CNCN / PRC
Related business
Manufacturer
Unknown
Mission
Spacecraft
Bus & Motor
Unknown
Mass
Unknown
Launch date (UTC)
1999-05-10 (27 years ago)
Launch vehicle
Unknown
Launch site
Taiyaun Space Center, China (TSC)
Object type
Payload
Rocket body
Debris
Shape & HBR
Unknown shape, 0.1 m
Radar Cross Section
Small (<0.1 m²)

Expand to show TLE details & history
Last TLE update: 5 days ago

TLE from 5 days ago
0 FENGYUN 1C DEB
1 31466U 99025BVE 26204.08644004  .00000557  00000-0  18807-3 0  9999
2 31466  99.1020 145.0731 0299920  36.0706 326.0302 14.18745007994811
Epoch: 2026-07-23T02:04Z
TLE epoch observation values (Epoch: 2026-07-23T02:04:28.419Z)
Latitude
-0.00002°
Longitude
173.12222°
Altitude
655.288 km
Speed
7.622 km/s
True Right ascension
09h 40m 17s
True Declination
0° 00' 00"
Sunlit
Object was in daylight at epoch
Visualization orbit readout
Latitude
Unknown
Longitude
Unknown
Altitude
Unknown
Speed
Unknown
Apparent Right ascension
Unknown
Apparent Declination
Unknown
Sunlit
N/A
Visualization observer readout
Local Sidereal Time
11:58:37
Azimuth
Unknown
Elevation
Unknown
Doppler factor
Unknown
Orbital elements
Apogee altitude
1,042.866 km
Perigee altitude
610.686 km
Semi-major axis
7,204.913 km
Eccentricity
0.02999
Inclination
99.102°
RAAN
145.0731°
Arg. of periapsis
36.0706°
True anomaly
324.04871°
Mean anomaly
326.0302°
Eccentric anomaly
325.04568°
Mean motion
3.54895 °/min
Orbital period
101.44 mins
BSTAR
0.00018807
Loading maneuver chart data...
Computing Atmospheric mass density...
Loading historical data...
Loading historical data...
Loading historical data...
Loading historical data...
Loading historical data...
Loading historical data...
Loading historical data...

Documentation

Showing up to 5 results
|